Regional Weather Roundup
Issued by NWS

Home | Current Version | Previous Version | Text Only | Print | Product List | Glossary On
Versions: 1 2 3 4 5 6 7 8 9 10 11 12 13 14 15 16 17 18 19 20 21 22 23 24 25 26 27 28 29 30 31 32 33 34 35 36 37 38 39 40 41 42 43 44 45 46 47 48 49 50
000
ASUS43 KMPX 301710
RWRMN
WEATHER ROUNDUP FOR MINNESOTA
NATIONAL WEATHER SERVICE TWIN CITIES/CHANHASSEN MN
1200 PM CDT SAT AUG 30 2014


NOTE: "FAIR" INDICATES FEW OR NO CLOUDS BELOW 12,000 FEET WITH NO
SIGNIFICANT WEATHER AND/OR OBSTRUCTIONS TO VISIBILITY. N/A MEANS
CURRENT SKY AND/OR WEATHER CONDITIONS ARE NOT AVAILABLE.

MNZ060>063-068>070-301800-
   Twin Cities Metro

CITY           SKY/WX    TMP DP  RH WIND       PRES   REMARKS
TWIN CITIES    PTSUNNY   72  61  68 N6        29.85S
ST PAUL        CLOUDY    70  61  73 N10       29.85S
CRYSTAL        PTSUNNY   75  61  61 N9        29.84S
BLAINE         PTSUNNY   73  66  78 NE6       29.85S
LAKEVILLE      PTSUNNY   72  63  73 NW8       29.85F
EDEN PRAIRIE   PTSUNNY   74  63  68 N6        29.85S
SOUTH ST PAUL  SUNNY     73  60  65 N9        29.85S
LAKE ELMO      CLOUDY    68  63  83 NW10      29.86S
$$
MNZ001>005-007-008-013>017-022>024-027-028-301800-
   Northwest Minnesota

CITY           SKY/WX    TMP DP  RH WIND       PRES   REMARKS
BEMIDJI        CLOUDY    60  55  82 NE7       29.92S
HALLOCK        SUNNY     66  50  55 CALM      29.92F
ROSEAU         SUNNY     66  54  63 E3        29.92F
WARROAD        SUNNY     63  55  77 E6        29.94S
THIEF RVR FALL MOSUNNY   64  55  72 E9        29.91F
CROOKSTON      SUNNY     64  54  68 E7        29.92F
FOSSTON        MOSUNNY   64  57  77 E3        29.92F
DETROIT LAKES  CLOUDY    63  57  82 E5        29.91F
MOORHEAD       CLOUDY    63  61  94 N7        29.91F
PARK RAPIDS    CLOUDY    60  56  86 N8        29.91S
MAHNOMEN       CLOUDY    65  57  74 E6        29.90F
$$
MNZ006-009>011-018-025>026-301800-
   North Central Minnesota

CITY           SKY/WX    TMP DP  RH WIND       PRES   REMARKS
BAUDETTE       MOSUNNY   65  53  65 E6        29.92F
FLAG ISLAND    CLOUDY    59  52  77 N6        29.93F
INTL FALLS     PTSUNNY   65  52  62 MISG      29.91F
WASKISH        CLOUDY    63  55  77 E7        29.92F
BIG FORK       MOSUNNY   64  55  72 NE6       29.92S
LONGVILLE      CLOUDY    61  57  88 CALM      29.90S
GRAND RAPIDS   CLOUDY    61  55  82 NE5       29.90S
CRANE LAKE     CLOUDY    61  54  77 CALM      29.93F
ORR            CLOUDY    63  54  72 N5        29.89S
COOK           CLOUDY    61  55  82 NE6       29.91S
WALKER         CLOUDY    58  56  91 NE6       29.91S
$$
MNZ012-019>021-037-301800-
   Northeast Minnesota

CITY           SKY/WX    TMP DP  RH WIND       PRES   REMARKS
DULUTH         CLOUDY    66  60  81 NE7       29.87S
ELY            CLOUDY    61  55  82 NE5       29.90S
HIBBING        CLOUDY    64  57  78 NE8       29.89
EVELETH        CLOUDY    63  59  88 NE7       29.90S
DULUTH HARBOR  CLOUDY    64  61  88 E5        29.87S
TWO HARBORS    CLOUDY    63  57  82 SE3       29.85S
SILVER BAY     PTSUNNY   63  63 100 CALM      29.85S FOG
GRAND MARAIS     N/A     65  60  84 N5        29.85S
G MARAIS ARPRT CLOUDY    57  54  88 N10G16    29.89S FOG
$$
MNZ029>031-032-039>041-046>048-054>057-064-301800-
   West Central Minnesota

CITY           SKY/WX    TMP DP  RH WIND       PRES   REMARKS
FERGUS FALLS   CLOUDY    61  57  88 NW8       29.90F
WHEATON        CLOUDY    61  55  82 W6        29.93S
MORRIS         PTSUNNY   64  61  88 NW9       29.89F
ALEXANDRIA     CLOUDY    65  60  84 NE3       29.91S
ELBOW LAKE     CLOUDY    60  58  92 W7        29.90F
WADENA         CLOUDY    63  57  82 N8        29.89F
GLENWOOD       CLOUDY    64  63  94 CALM      29.90S
APPLETON       CLOUDY    64  59  82 NW6       29.90F
BENSON         CLOUDY    66  63  88 N7        29.90S
ORTONVILLE     CLOUDY    64  57  77 NW6       29.91F
MADISON        SUNNY     66  61  82 NW7       29.91F
WILLMAR        CLOUDY    66  63  88 W6        29.90F
$$
MNZ033>034-036-042>043-049>051-058-059-301800-
   Central Minnesota

CITY           SKY/WX    TMP DP  RH WIND       PRES   REMARKS
ST CLOUD       CLOUDY    71  64  78 N3        29.86F
SAUK CENTRE    CLOUDY    64  61  88 N3        29.89S
PAYNESVILLE    HVY RAIN  64  63  95 NW5       29.89S
AITKIN         CLOUDY    68  63  83 N6        29.87F
PINE RIVER     CLOUDY    61  61 100 N6        29.93S
BRAINERD       CLOUDY    62  60  93 N5        29.89S
STAPLES        CLOUDY    61  57  88 NE3       29.90S
LONG PRAIRIE   CLOUDY    63  59  88 CALM      29.90S
LITTLE FALLS   CLOUDY    63  61  94 N3        29.89S
LITCHFIELD     PTSUNNY   73  70  88 W5        29.87F
BUFFALO        CLOUDY    73  61  67 NE7       29.87S
MAPLE LAKE     CLOUDY    73  65  77 NE5       29.87S
$$
MNZ037-044-045-052-053-301800-
   East Central Minnesota

CITY           SKY/WX    TMP DP  RH WIND       PRES   REMARKS
PRINCETON      CLOUDY    72  63  73 NE5       29.87S
MORA           CLOUDY    68  59  73 NE6       29.88F
CAMBRIDGE      PTSUNNY   72  57  60 NE3       29.85S
RUSH CITY      CLOUDY    68  60  75 NE5       29.87S
MOOSE LAKE     CLOUDY    68  59  73 NE5       29.86R
HINCKLEY       CLOUDY    70  61  73 N6        29.86S
CLOQUET        CLOUDY    64  61  88 N5        29.87S
MCGREGOR       CLOUDY    68  61  77 NE5       29.88F
$$
MNZ071>073-080-081-089-090-097-098-301800-
   Southwest Minnesota

CITY           SKY/WX    TMP DP  RH WIND       PRES   REMARKS
MONTEVIDEO     CLOUDY    64  64 100 NW7       29.91S
GRANITE FALLS  CLOUDY    64  62  92 W8        29.92S
CANBY          CLOUDY    64  59  85 NW7       29.92F
MARSHALL       CLOUDY    63  57  82 NW9       29.91S
REDWOOD FALLS  CLOUDY    66  63  90 W7        29.89F
OLIVIA         CLOUDY    68  63  83 NW9       29.89S
PIPESTONE      CLOUDY    64  61  88 CALM      29.93S
WINDOM         PTSUNNY   66  63  88 NW6       29.92S
WORTHINGTON    CLOUDY    64  63  94 N7        29.94F
JACKSON        CLOUDY    70  63  78 NW6       29.92F
TRACY          CLOUDY    64  62  94 CALM      29.92S FOG
SLAYTON        CLOUDY    64  62  91 CALM      29.94S
$$
MNZ065>067-074>077-082>085-091>093-301800-
   South Central Minnesota

CITY           SKY/WX    TMP DP  RH WIND       PRES   REMARKS
MANKATO        CLOUDY    70  64  83 W13       29.87S
NEW ULM        MOSUNNY   66  66 100 NW9       29.89S
ST JAMES       CLOUDY    70  63  78 W8        29.91S
FAIRMONT       CLOUDY    64  61  88 NW10      29.91S
GLENCOE        CLOUDY    70  65  83 W6        29.86F
FARIBAULT      PTSUNNY   75  61  60 NW6       29.87R
OWATONNA       PTSUNNY   73  63  68 NW12      29.87S
WASECA         CLOUDY    72  61  68 W5        29.89S
ALBERT LEA     CLOUDY    73  66  78 NW6       29.87S
$$
MNZ078>079-086>088-094>096-301800-
   Southeast Minnesota

CITY           SKY/WX    TMP DP  RH WIND       PRES   REMARKS
ROCHESTER      PTSUNNY   74  64  71 NW12      29.86S
RED WING       CLOUDY    70  64  83 NW8       29.83S
STANTON        CLOUDY    73  63  71 N8        29.84S
DODGE CENTER   PTSUNNY   73  64  73 NW10      29.86S
WINONA         CLOUDY    72  64  78 NW9       29.82R
AUSTIN         PTSUNNY   73  64  73 W10       29.86F
PRESTON        PTSUNNY   72  67  87 NW5       29.86S
$$
ABBREVIATIONS USED IN REMARKS
   TC - TEMPERATURES IN CELSIUS
  WCI - WIND CHILL INDEX
   HX - HEAT INDEX
  VSB - VISIBILITY
$$


USA.gov is the U.S. government's official web portal to all federal, state and local government web resources and services.